TimeMST,TemperatureF,Dew PointF,Humidity,Sea Level PressureIn,VisibilityMPH,Wind Direction,Wind SpeedMPH,Gust SpeedMPH,PrecipitationIn,Events,Conditions,WindDirDegrees,DateUTC
12:53 AM,54.0,28.0,37,29.85,10.0,SSE,3.5,-,N/A,,Clear,150,2012-12-07 07:53:00
1:53 AM,53.1,26.1,35,29.84,10.0,SSE,3.5,-,N/A,,Clear,150,2012-12-07 08:53:00
2:53 AM,50.0,24.1,36,29.84,10.0,SE,4.6,-,N/A,,Clear,140,2012-12-07 09:53:00
3:53 AM,48.9,23.0,36,29.86,10.0,SE,6.9,-,N/A,,Clear,140,2012-12-07 10:53:00
4:53 AM,48.9,23.0,36,29.86,10.0,SSE,4.6,-,N/A,,Clear,150,2012-12-07 11:53:00
5:53 AM,46.9,24.1,41,29.87,10.0,SSE,5.8,-,N/A,,Clear,160,2012-12-07 12:53:00
6:53 AM,46.9,24.1,41,29.90,10.0,SSE,4.6,-,N/A,,Clear,150,2012-12-07 13:53:00
7:53 AM,48.0,25.0,41,29.91,10.0,SSE,6.9,-,N/A,,Clear,160,2012-12-07 14:53:00
8:53 AM,55.0,27.0,34,29.92,10.0,SSE,5.8,-,N/A,,Clear,150,2012-12-07 15:53:00
9:53 AM,61.0,28.0,29,29.92,10.0,SSE,4.6,-,N/A,,Clear,150,2012-12-07 16:53:00
10:53 AM,66.0,30.0,26,29.90,10.0,Calm,Calm,-,N/A,,Clear,0,2012-12-07 17:53:00
11:53 AM,70.0,32.0,25,29.87,10.0,NE,3.5,-,N/A,,Clear,40,2012-12-07 18:53:00
12:53 PM,73.0,34.0,24,29.85,10.0,Variable,4.6,-,N/A,,Clear,0,2012-12-07 19:53:00
1:53 PM,73.0,36.0,26,29.83,10.0,WNW,4.6,-,N/A,,Clear,300,2012-12-07 20:53:00
2:53 PM,73.9,34.0,23,29.82,10.0,NW,9.2,-,N/A,,Clear,310,2012-12-07 21:53:00
3:53 PM,73.0,34.0,24,29.83,10.0,WNW,8.1,-,N/A,,Clear,300,2012-12-07 22:53:00
4:53 PM,71.1,33.1,25,29.83,10.0,NNW,12.7,-,N/A,,Clear,330,2012-12-07 23:53:00
5:53 PM,66.2,35.6,32,29.92,10.0,North,6.9,-,N/A,,Clear,350,2012-12-08 00:53:00
6:53 PM,64.0,36.0,35,29.87,10.0,NNW,5.8,-,N/A,,Clear,340,2012-12-08 01:53:00
7:53 PM,62.1,36.0,38,29.89,10.0,Calm,Calm,-,N/A,,Clear,0,2012-12-08 02:53:00
8:53 PM,57.9,35.1,42,29.90,10.0,South,5.8,-,N/A,,Clear,190,2012-12-08 03:53:00
9:53 PM,54.0,34.0,47,29.90,10.0,South,4.6,-,N/A,,Clear,180,2012-12-08 04:53:00
10:53 PM,52.0,34.0,50,29.90,10.0,South,3.5,-,N/A,,Clear,170,2012-12-08 05:53:00
11:53 PM,51.1,33.1,50,29.91,10.0,SSE,4.6,-,N/A,,Clear,150,2012-12-08 06:53:00